WAT6513 KDFW-KPBI

Flight info

Callsign WAT6513
Flight time N/A
Altitude 31000
Route MRSSH3 ZALEA HRV Q105 BLVNS Y290 GAWKS VUUDU1
Aircraft CRJX/M-SDFGIRWY/S

Departure

Time 2026-04-30 14:04
Airport Dallas Fort Worth International Airport (KDFW)

Arrival

Time N/A
Airport Palm Beach International Airport (KPBI)
Time Latitude Longitude Altitude Speed Heading
2026-04-30 13:39 32.88778 -97.03522 596 ft 0 kts 114°
2026-04-30 13:57 32.88783 -97.03534 596 ft 4 kts 131°
2026-04-30 13:57 32.88801 -97.03542 596 ft 4 kts 192°
2026-04-30 13:57 32.88819 -97.03531 596 ft 1 kts 220°
2026-04-30 13:59 32.88799 -97.03552 596 ft 10 kts 219°
2026-04-30 13:59 32.88733 -97.03588 596 ft 10 kts 175°
2026-04-30 13:59 32.88658 -97.03565 596 ft 14 kts 176°
2026-04-30 14:00 32.88604 -97.03502 596 ft 12 kts 94°
2026-04-30 14:00 32.88524 -97.03317 596 ft 15 kts 162°
2026-04-30 14:00 32.88401 -97.03288 596 ft 21 kts 180°
2026-04-30 14:01 32.88256 -97.03288 596 ft 20 kts 180°
2026-04-30 14:01 32.88118 -97.03290 596 ft 20 kts 180°
2026-04-30 14:01 32.87991 -97.03271 596 ft 17 kts 134°
2026-04-30 14:01 32.87978 -97.03154 596 ft 11 kts 92°
2026-04-30 14:02 32.87978 -97.03136 596 ft 1 kts 92°
2026-04-30 14:02 32.87977 -97.03125 596 ft 5 kts 92°
2026-04-30 14:02 32.87975 -97.03053 596 ft 9 kts 90°
2026-04-30 14:02 32.88027 -97.03010 596 ft 15 kts
2026-04-30 14:03 32.88310 -97.03007 596 ft 74 kts
2026-04-30 14:03 32.89044 -97.03004 596 ft 134 kts
2026-04-30 14:03 32.90143 -97.03000 638 ft 177 kts
2026-04-30 14:03 32.91432 -97.03049 1146 ft 189 kts 357°
2026-04-30 14:04 32.92728 -97.03085 1905 ft 185 kts
2026-04-30 14:04 32.93955 -97.02795 2727 ft 178 kts 24°
2026-04-30 14:04 32.95209 -97.02432 3329 ft 191 kts 16°
2026-04-30 14:04 32.96503 -97.02129 4043 ft 190 kts 18°
2026-04-30 14:05 32.97789 -97.01733 4715 ft 192 kts 19°
2026-04-30 14:05 32.99104 -97.01338 5322 ft 201 kts 15°
2026-04-30 14:05 33.00555 -97.00983 5707 ft 223 kts 13°
2026-04-30 14:05 33.01958 -97.00148 6100 ft 236 kts 48°
2026-04-30 14:06 33.02678 -96.98334 6474 ft 254 kts 83°
2026-04-30 14:06 33.01910 -96.93993 7559 ft 283 kts 104°
2026-04-30 14:07 33.01176 -96.89220 8844 ft 301 kts 99°
2026-04-30 14:07 33.00872 -96.86717 9494 ft 309 kts 104°
2026-04-30 14:07 33.00019 -96.84333 9941 ft 322 kts 124°
2026-04-30 14:08 32.97259 -96.79776 10634 ft 355 kts 130°
2026-04-30 14:08 32.95741 -96.77395 11084 ft 366 kts 130°
2026-04-30 14:08 32.92726 -96.72383 12313 ft 378 kts 127°
2026-04-30 14:09 32.91204 -96.69794 12937 ft 384 kts 128°
2026-04-30 14:09 32.89661 -96.67173 13541 ft 389 kts 128°
2026-04-30 14:09 32.86527 -96.61873 14644 ft 398 kts 128°
2026-04-30 14:10 32.84927 -96.59163 15190 ft 402 kts 128°
2026-04-30 14:10 32.83310 -96.56433 15704 ft 406 kts 128°
2026-04-30 14:10 32.81677 -96.53679 16206 ft 409 kts 128°
2026-04-30 14:10 32.80028 -96.50900 16701 ft 413 kts 128°
2026-04-30 14:11 32.78368 -96.48102 17195 ft 416 kts 128°
2026-04-30 14:11 32.76692 -96.45273 17665 ft 420 kts 128°
2026-04-30 14:11 32.75000 -96.42425 18129 ft 424 kts 129°
2026-04-30 14:11 32.73291 -96.39557 18541 ft 427 kts 129°
2026-04-30 14:12 32.71574 -96.36674 19004 ft 427 kts 129°
2026-04-30 14:12 32.70453 -96.34752 19270 ft 430 kts 126°
2026-04-30 14:12 32.69307 -96.31440 19614 ft 441 kts 103°
2026-04-30 14:12 32.68963 -96.27811 19980 ft 445 kts 93°
2026-04-30 14:13 32.68900 -96.24122 20341 ft 448 kts 91°
2026-04-30 14:13 32.68841 -96.20408 20696 ft 451 kts 93°
2026-04-30 14:13 32.68577 -96.15456 21141 ft 455 kts 96°
2026-04-30 14:13 32.68289 -96.11705 21407 ft 458 kts 97°
2026-04-30 14:14 32.68102 -96.09152 21655 ft 460 kts 96°
2026-04-30 14:14 32.67844 -96.05352 21958 ft 464 kts 96°
2026-04-30 14:14 32.67584 -96.01524 22275 ft 467 kts 96°
2026-04-30 14:14 32.67321 -95.97678 22582 ft 470 kts 97°
2026-04-30 14:15 32.67055 -95.93800 22869 ft 473 kts 97°
2026-04-30 14:15 32.66788 -95.89901 23181 ft 476 kts 97°
2026-04-30 14:15 32.66517 -95.85979 23469 ft 478 kts 97°
2026-04-30 14:15 32.66244 -95.82033 23727 ft 481 kts 97°
2026-04-30 14:16 32.65971 -95.78119 23947 ft 484 kts 97°
2026-04-30 14:16 32.65692 -95.74126 24174 ft 486 kts 97°
2026-04-30 14:16 32.65412 -95.70120 24391 ft 489 kts 97°
2026-04-30 14:16 32.65129 -95.66075 24584 ft 492 kts 97°
2026-04-30 14:17 32.64839 -95.62022 24806 ft 495 kts 96°
2026-04-30 14:17 32.64553 -95.57948 25030 ft 497 kts 96°
2026-04-30 14:17 32.64260 -95.53834 25065 ft 504 kts 96°
2026-04-30 14:17 32.63961 -95.49654 25069 ft 512 kts 96°
2026-04-30 14:18 32.63654 -95.45407 25083 ft 519 kts 96°
2026-04-30 14:18 32.63342 -95.41117 25155 ft 524 kts 96°
2026-04-30 14:18 32.62714 -95.32474 25597 ft 526 kts 96°
2026-04-30 14:19 32.62079 -95.23801 26036 ft 528 kts 96°
2026-04-30 14:19 32.61758 -95.19460 26293 ft 528 kts 96°
2026-04-30 14:19 32.61432 -95.15116 26501 ft 529 kts 96°
2026-04-30 14:20 32.61113 -95.10826 26721 ft 529 kts 96°
2026-04-30 14:20 32.60784 -95.06465 26987 ft 530 kts 96°
2026-04-30 14:20 32.60130 -94.97753 27522 ft 530 kts 95°
2026-04-30 14:21 32.59798 -94.93395 27779 ft 531 kts 95°
2026-04-30 14:21 32.59462 -94.89030 28037 ft 531 kts 95°
2026-04-30 14:21 32.58798 -94.80297 28552 ft 532 kts 95°
2026-04-30 14:22 32.58231 -94.75969 28762 ft 532 kts 105°
2026-04-30 14:22 32.55844 -94.67689 29229 ft 530 kts 114°
2026-04-30 14:22 32.54546 -94.63589 29485 ft 531 kts 112°
2026-04-30 14:23 32.52247 -94.55323 29929 ft 532 kts 109°
2026-04-30 14:23 32.49954 -94.46978 30340 ft 533 kts 110°
2026-04-30 14:24 32.47572 -94.38607 30720 ft 533 kts 110°
2026-04-30 14:24 32.46388 -94.34445 30878 ft 534 kts 110°
2026-04-30 14:25 32.44010 -94.26114 30991 ft 540 kts 110°
2026-04-30 14:25 32.41595 -94.17679 31018 ft 542 kts 110°
2026-04-30 14:26 32.37948 -94.04975 31030 ft 545 kts 110°
2026-04-30 14:27 32.34269 -93.92230 31025 ft 547 kts 110°
2026-04-30 14:27 32.31801 -93.83707 31017 ft 549 kts 110°
2026-04-30 14:28 32.28082 -93.70897 30998 ft 550 kts 111°
2026-04-30 14:28 32.25587 -93.62340 31015 ft 550 kts 111°
2026-04-30 14:29 32.19976 -93.45579 31016 ft 544 kts 127°
2026-04-30 14:31 32.08434 -93.28147 31016 ft 543 kts 132°
2026-04-30 14:31 32.01524 -93.17563 30992 ft 543 kts 133°
2026-04-30 14:32 31.94602 -93.07009 31003 ft 542 kts 133°
2026-04-30 14:33 31.89983 -92.99990 31008 ft 543 kts 133°
2026-04-30 14:33 31.83038 -92.89454 31010 ft 543 kts 133°
2026-04-30 14:34 31.78397 -92.82428 31001 ft 543 kts 133°
2026-04-30 14:34 31.73766 -92.75413 30993 ft 543 kts 133°
2026-04-30 14:35 31.66835 -92.64976 30995 ft 542 kts 133°
2026-04-30 14:36 31.62193 -92.57994 30996 ft 542 kts 133°
2026-04-30 14:36 31.57548 -92.51021 30991 ft 542 kts 133°
2026-04-30 14:37 31.52898 -92.44053 30984 ft 542 kts 133°
2026-04-30 14:37 31.48249 -92.37091 30969 ft 542 kts 132°
2026-04-30 14:38 31.43601 -92.30148 30979 ft 541 kts 133°
2026-04-30 14:38 31.38953 -92.23217 30977 ft 541 kts 132°
2026-04-30 14:39 31.34301 -92.16301 30976 ft 541 kts 132°
2026-04-30 14:39 31.29680 -92.09438 30973 ft 540 kts 133°
2026-04-30 14:40 31.22701 -91.99094 30962 ft 540 kts 133°
2026-04-30 14:40 31.18051 -91.92208 30981 ft 538 kts 132°
2026-04-30 14:41 31.13410 -91.85356 30965 ft 538 kts 132°
2026-04-30 14:41 31.08760 -91.78511 30966 ft 538 kts 132°
2026-04-30 14:42 31.04117 -91.71676 30961 ft 537 kts 132°
2026-04-30 14:42 30.99463 -91.64843 30965 ft 537 kts 132°
2026-04-30 14:43 30.94843 -91.58076 30949 ft 537 kts 132°
2026-04-30 14:43 30.90203 -91.51273 30975 ft 536 kts 132°
2026-04-30 14:44 30.85560 -91.44493 30979 ft 535 kts 132°
2026-04-30 14:44 30.80910 -91.37718 30977 ft 535 kts 132°
2026-04-30 14:45 30.76263 -91.30949 30977 ft 535 kts 132°
2026-04-30 14:45 30.71610 -91.24190 30972 ft 535 kts 132°
2026-04-30 14:46 30.66958 -91.17440 30975 ft 535 kts 132°
2026-04-30 14:46 30.63090 -91.11840 30975 ft 535 kts 132°
2026-04-30 14:47 30.57665 -91.03992 30978 ft 535 kts 132°
2026-04-30 14:47 30.53001 -90.97261 30976 ft 535 kts 132°
2026-04-30 14:48 30.48332 -90.90539 30965 ft 535 kts 132°
2026-04-30 14:48 30.43660 -90.83814 30965 ft 536 kts 132°
2026-04-30 14:49 30.38980 -90.77091 30948 ft 536 kts 132°
2026-04-30 14:49 30.34301 -90.70380 30965 ft 536 kts 132°
2026-04-30 14:50 30.27273 -90.60327 30965 ft 536 kts 132°
2026-04-30 14:51 30.20231 -90.50280 30956 ft 535 kts 132°
2026-04-30 14:52 30.13188 -90.40255 30952 ft 535 kts 132°
2026-04-30 14:52 30.06139 -90.30236 30965 ft 535 kts 131°
2026-04-30 14:53 29.99108 -90.20288 30969 ft 536 kts 131°
2026-04-30 14:54 29.89671 -90.06965 30954 ft 536 kts 131°
2026-04-30 14:55 29.82561 -89.96995 30918 ft 537 kts 131°
2026-04-30 14:56 29.72958 -89.83816 30977 ft 538 kts 133°
2026-04-30 14:57 29.65697 -89.73935 30947 ft 539 kts 133°
2026-04-30 14:58 29.56000 -89.60787 30948 ft 539 kts 133°
2026-04-30 14:58 29.49545 -89.52057 30954 ft 538 kts 133°
2026-04-30 15:00 29.37428 -89.35719 30956 ft 537 kts 133°
2026-04-30 15:01 29.27732 -89.22699 30967 ft 537 kts 133°
2026-04-30 15:01 29.20467 -89.12954 30965 ft 536 kts 133°
2026-04-30 15:02 29.15619 -89.06476 30968 ft 535 kts 133°
2026-04-30 15:03 29.03545 -88.90382 30971 ft 534 kts 133°
2026-04-30 15:04 28.91451 -88.74316 30969 ft 533 kts 133°
2026-04-30 15:06 28.79410 -88.58344 30978 ft 532 kts 132°
2026-04-30 15:07 28.69814 -88.45509 30983 ft 532 kts 131°
2026-04-30 15:08 28.60208 -88.32686 30971 ft 531 kts 132°
2026-04-30 15:09 28.48195 -88.16712 30976 ft 531 kts 132°
2026-04-30 15:10 28.38754 -88.03858 30973 ft 531 kts 120°
2026-04-30 15:11 28.33887 -87.88127 30982 ft 529 kts 105°
2026-04-30 15:11 28.31585 -87.80194 30981 ft 529 kts 107°
2026-04-30 15:13 28.25843 -87.60430 30985 ft 528 kts 107°
2026-04-30 15:14 28.17764 -87.32806 30984 ft 527 kts 107°
2026-04-30 15:17 28.07355 -86.97541 30989 ft 524 kts 107°
2026-04-30 15:19 27.98061 -86.66286 30985 ft 523 kts 107°